RBF weather

Big Bear City Airport
Big Bear, California, United States

Public forecast

Using degrees Fahrenheit for public forecast. Weather courtesy of forecast.io.

Current aviation weather report (METAR) for Big Bear City Airport

Retrieved UTC (0 seconds ago):

Closest aviation forecast (TAF) to Big Bear City Airport

Closest forecast is San Bernardino International Airport, 21.4 nm (39.6 km) WSW. Retrieved 2019-12-16 00:48 UTC (4 hours ago):

TAF KSBD 152341Z 1600/1624 34011KT P6SM FEW050 FM160300 VRB06KT P6SM FEW250 FM161400 04008KT P6SM SCT250